Wetterdaten: Donnerstag, 20.08.2020
Datum Zeit Temp. Auen Feucht Auen Luftdruck Regen Richtung Richtung Windben
20.08.2020 00:00 14,2 C 84 % 1011,4 hPa 0,0 mm SO 145 0,0 km/h (0 Bft)
20.08.2020 00:05 14,1 C 84 % 1011,4 hPa 0,0 mm SO 145 1,6 km/h (1 Bft)
20.08.2020 00:10 14,0 C 85 % 1011,4 hPa 0,0 mm SO 145 0,0 km/h (0 Bft)
20.08.2020 00:15 13,9 C 85 % 1011,4 hPa 0,0 mm SO 145 0,0 km/h (0 Bft)
20.08.2020 00:20 13,9 C 85 % 1011,3 hPa 0,0 mm SO 145 0,0 km/h (0 Bft)
20.08.2020 00:25 13,8 C 85 % 1011,4 hPa 0,0 mm SO 145 0,0 km/h (0 Bft)
20.08.2020 00:30 13,8 C 85 % 1011,4 hPa 0,0 mm SO 145 0,0 km/h (0 Bft)
20.08.2020 00:35 13,7 C 85 % 1011,4 hPa 0,0 mm SO 145 0,0 km/h (0 Bft)
20.08.2020 00:40 13,7 C 85 % 1011,3 hPa 0,0 mm SO 145 0,0 km/h (0 Bft)
20.08.2020 00:45 13,6 C 85 % 1011,4 hPa 0,0 mm SO 145 0,0 km/h (0 Bft)
20.08.2020 00:50 13,5 C 85 % 1011,4 hPa 0,0 mm SO 145 0,0 km/h (0 Bft)
20.08.2020 00:55 13,5 C 85 % 1011,4 hPa 0,0 mm SO 145 0,0 km/h (0 Bft)
20.08.2020 01:00 13,4 C 86 % 1011,4 hPa 0,0 mm SO 145 0,0 km/h (0 Bft)
20.08.2020 01:05 13,3 C 86 % 1011,4 hPa 0,0 mm SO 145 0,0 km/h (0 Bft)
20.08.2020 01:10 13,3 C 86 % 1011,4 hPa 0,0 mm SO 145 0,0 km/h (0 Bft)
20.08.2020 01:15 13,2 C 86 % 1011,4 hPa 0,0 mm SO 145 0,0 km/h (0 Bft)
20.08.2020 01:20 13,2 C 86 % 1011,5 hPa 0,0 mm SO 145 0,0 km/h (0 Bft)
20.08.2020 01:25 13,1 C 86 % 1011,5 hPa 0,0 mm SO 145 0,0 km/h (0 Bft)
20.08.2020 01:30 13,1 C 86 % 1011,4 hPa 0,0 mm SO 145 0,0 km/h (0 Bft)
20.08.2020 01:35 13,0 C 86 % 1011,4 hPa 0,0 mm SO 145 0,0 km/h (0 Bft)
20.08.2020 01:40 13,0 C 86 % 1011,4 hPa 0,0 mm SO 145 0,0 km/h (0 Bft)
20.08.2020 01:45 12,9 C 86 % 1011,3 hPa 0,0 mm SO 145 0,0 km/h (0 Bft)
20.08.2020 01:50 12,9 C 86 % 1011,3 hPa 0,0 mm SO 145 0,0 km/h (0 Bft)
20.08.2020 01:55 12,8 C 86 % 1011,3 hPa 0,0 mm SO 145 1,6 km/h (1 Bft)
20.08.2020 02:00 12,8 C 87 % 1011,3 hPa 0,0 mm SO 145 1,6 km/h (1 Bft)
20.08.2020 02:05 12,7 C 87 % 1011,3 hPa 0,0 mm SO 145 0,0 km/h (0 Bft)
20.08.2020 02:10 12,7 C 87 % 1011,3 hPa 0,0 mm SO 145 0,0 km/h (0 Bft)
20.08.2020 02:15 12,7 C 87 % 1011,3 hPa 0,0 mm SO 145 0,0 km/h (0 Bft)
20.08.2020 02:20 12,6 C 87 % 1011,2 hPa 0,0 mm SO 145 0,0 km/h (0 Bft)
20.08.2020 02:25 12,6 C 87 % 1011,2 hPa 0,0 mm SO 145 0,0 km/h (0 Bft)
20.08.2020 02:30 12,5 C 87 % 1011,2 hPa 0,0 mm SO 145 0,0 km/h (0 Bft)
20.08.2020 02:35 12,5 C 87 % 1011,2 hPa 0,0 mm SO 145 0,0 km/h (0 Bft)
20.08.2020 02:40 12,4 C 87 % 1011,3 hPa 0,0 mm SO 145 0,0 km/h (0 Bft)
20.08.2020 02:45 12,4 C 87 % 1011,2 hPa 0,0 mm SO 145 0,0 km/h (0 Bft)
20.08.2020 02:50 12,3 C 87 % 1011,2 hPa 0,0 mm SO 145 0,0 km/h (0 Bft)
20.08.2020 02:55 12,3 C 87 % 1011,2 hPa 0,0 mm SO 145 1,6 km/h (1 Bft)
20.08.2020 03:00 12,3 C 87 % 1011,2 hPa 0,0 mm SO 145 0,0 km/h (0 Bft)
20.08.2020 03:05 12,3 C 87 % 1011,2 hPa 0,0 mm SO 145 1,6 km/h (1 Bft)
20.08.2020 03:10 12,2 C 87 % 1011,1 hPa 0,0 mm SO 145 0,0 km/h (0 Bft)
20.08.2020 03:15 12,2 C 87 % 1011,2 hPa 0,0 mm SO 145 0,0 km/h (0 Bft)
20.08.2020 03:20 12,2 C 88 % 1011,2 hPa 0,0 mm SO 145 0,0 km/h (0 Bft)
20.08.2020 03:25 12,1 C 88 % 1011,3 hPa 0,0 mm SO 145 0,0 km/h (0 Bft)
20.08.2020 03:30 12,1 C 88 % 1011,3 hPa 0,0 mm SO 145 0,0 km/h (0 Bft)
20.08.2020 03:35 12,0 C 88 % 1011,3 hPa 0,0 mm SO 145 0,0 km/h (0 Bft)
20.08.2020 03:40 11,9 C 88 % 1011,3 hPa 0,0 mm SO 145 0,0 km/h (0 Bft)
20.08.2020 03:45 11,9 C 88 % 1011,4 hPa 0,0 mm SO 145 1,6 km/h (1 Bft)
20.08.2020 03:50 11,9 C 88 % 1011,4 hPa 0,0 mm SO 145 0,0 km/h (0 Bft)
20.08.2020 03:55 11,8 C 88 % 1011,3 hPa 0,0 mm SO 145 0,0 km/h (0 Bft)
20.08.2020 04:00 11,8 C 88 % 1011,4 hPa 0,0 mm SO 145 0,0 km/h (0 Bft)
20.08.2020 04:05 11,7 C 88 % 1011,4 hPa 0,0 mm SO 145 3,2 km/h (1 Bft)
20.08.2020 04:10 11,7 C 88 % 1011,4 hPa 0,0 mm SO 145 1,6 km/h (1 Bft)
20.08.2020 04:15 11,7 C 88 % 1011,4 hPa 0,0 mm SO 145 1,6 km/h (1 Bft)
20.08.2020 04:20 11,7 C 88 % 1011,4 hPa 0,0 mm SO 145 3,2 km/h (1 Bft)
20.08.2020 04:25 11,6 C 88 % 1011,3 hPa 0,0 mm SO 145 0,0 km/h (0 Bft)
20.08.2020 04:30 11,6 C 88 % 1011,3 hPa 0,0 mm SO 145 0,0 km/h (0 Bft)
20.08.2020 04:35 11,6 C 89 % 1011,3 hPa 0,0 mm SO 145 1,6 km/h (1 Bft)
20.08.2020 04:40 11,6 C 89 % 1011,3 hPa 0,0 mm SO 145 0,0 km/h (0 Bft)
20.08.2020 04:45 11,6 C 89 % 1011,2 hPa 0,0 mm SO 145 0,0 km/h (0 Bft)
20.08.2020 04:50 11,6 C 89 % 1011,3 hPa 0,0 mm SO 145 0,0 km/h (0 Bft)
20.08.2020 04:55 11,5 C 89 % 1011,3 hPa 0,0 mm SO 145 0,0 km/h (0 Bft)
20.08.2020 05:00 11,5 C 89 % 1011,3 hPa 0,0 mm SO 145 0,0 km/h (0 Bft)
20.08.2020 05:05 11,4 C 89 % 1011,2 hPa 0,0 mm SO 145 0,0 km/h (0 Bft)
20.08.2020 05:10 11,4 C 89 % 1011,3 hPa 0,0 mm SO 145 0,0 km/h (0 Bft)
20.08.2020 05:15 11,4 C 89 % 1011,4 hPa 0,0 mm SO 145 1,6 km/h (1 Bft)
20.08.2020 05:20 11,4 C 89 % 1011,4 hPa 0,0 mm SO 145 3,2 km/h (1 Bft)
20.08.2020 05:25 11,4 C 89 % 1011,5 hPa 0,0 mm SO 145 3,2 km/h (1 Bft)
20.08.2020 05:30 11,4 C 89 % 1011,5 hPa 0,0 mm SO 145 3,2 km/h (1 Bft)
20.08.2020 05:35 11,4 C 89 % 1011,5 hPa 0,0 mm SO 145 1,6 km/h (1 Bft)
20.08.2020 05:40 11,3 C 89 % 1011,5 hPa 0,0 mm SO 145 0,0 km/h (0 Bft)
20.08.2020 05:45 11,3 C 89 % 1011,6 hPa 0,0 mm SO 145 0,0 km/h (0 Bft)
20.08.2020 05:50 11,2 C 89 % 1011,6 hPa 0,0 mm SO 145 0,0 km/h (0 Bft)
20.08.2020 05:55 11,2 C 89 % 1011,7 hPa 0,0 mm SO 145 0,0 km/h (0 Bft)
20.08.2020 06:00 11,2 C 89 % 1011,7 hPa 0,0 mm SO 145 0,0 km/h (0 Bft)
20.08.2020 06:05 11,2 C 89 % 1011,8 hPa 0,0 mm SO 145 1,6 km/h (1 Bft)
20.08.2020 06:10 11,2 C 89 % 1011,8 hPa 0,0 mm SO 145 1,6 km/h (1 Bft)
20.08.2020 06:15 11,2 C 90 % 1011,9 hPa 0,0 mm SO 145 3,2 km/h (1 Bft)
20.08.2020 06:20 11,2 C 90 % 1011,8 hPa 0,0 mm SO 145 3,2 km/h (1 Bft)
20.08.2020 06:25 11,2 C 90 % 1011,9 hPa 0,0 mm SO 145 3,2 km/h (1 Bft)
20.08.2020 06:30 11,2 C 89 % 1011,9 hPa 0,0 mm SO 145 1,6 km/h (1 Bft)
20.08.2020 06:35 11,1 C 89 % 1011,9 hPa 0,0 mm SO 145 1,6 km/h (1 Bft)
20.08.2020 06:40 11,1 C 90 % 1011,9 hPa 0,0 mm SO 145 0,0 km/h (0 Bft)
20.08.2020 06:45 11,2 C 90 % 1011,9 hPa 0,0 mm SO 145 0,0 km/h (0 Bft)
20.08.2020 06:50 11,3 C 90 % 1012,0 hPa 0,0 mm SO 145 1,6 km/h (1 Bft)
20.08.2020 06:55 11,6 C 90 % 1012,0 hPa 0,0 mm SO 145 0,0 km/h (0 Bft)
20.08.2020 07:00 11,9 C 91 % 1012,1 hPa 0,0 mm SO 145 0,0 km/h (0 Bft)
20.08.2020 07:05 12,4 C 91 % 1012,1 hPa 0,0 mm SO 145 0,0 km/h (0 Bft)
20.08.2020 07:10 12,8 C 91 % 1012,1 hPa 0,0 mm SO 145 0,0 km/h (0 Bft)
20.08.2020 07:15 13,3 C 91 % 1012,1 hPa 0,0 mm SO 145 0,0 km/h (0 Bft)
20.08.2020 07:20 13,7 C 91 % 1012,1 hPa 0,0 mm SO 145 0,0 km/h (0 Bft)
20.08.2020 07:25 14,1 C 91 % 1012,0 hPa 0,0 mm SO 145 0,0 km/h (0 Bft)
20.08.2020 07:30 14,6 C 91 % 1012,1 hPa 0,0 mm SO 145 0,0 km/h (0 Bft)
20.08.2020 07:35 15,0 C 91 % 1012,1 hPa 0,0 mm SO 145 0,0 km/h (0 Bft)
20.08.2020 07:40 15,4 C 91 % 1012,1 hPa 0,0 mm SO 145 0,0 km/h (0 Bft)
20.08.2020 07:45 16,0 C 90 % 1012,2 hPa 0,0 mm SO 145 0,0 km/h (0 Bft)
20.08.2020 07:50 16,3 C 88 % 1012,2 hPa 0,0 mm SO 145 0,0 km/h (0 Bft)
20.08.2020 07:55 16,0 C 87 % 1012,2 hPa 0,0 mm SO 145 0,0 km/h (0 Bft)
20.08.2020 08:00 15,9 C 87 % 1012,2 hPa 0,0 mm SO 145 0,0 km/h (0 Bft)
20.08.2020 08:05 16,2 C 88 % 1012,2 hPa 0,0 mm SO 145 0,0 km/h (0 Bft)
20.08.2020 08:10 16,4 C 88 % 1012,3 hPa 0,0 mm SO 145 0,0 km/h (0 Bft)
20.08.2020 08:15 16,7 C 88 % 1012,3 hPa 0,0 mm SO 145 3,2 km/h (1 Bft)
20.08.2020 08:20 16,7 C 87 % 1012,3 hPa 0,0 mm SO 145 3,2 km/h (1 Bft)
20.08.2020 08:25 17,1 C 88 % 1012,4 hPa 0,0 mm SO 145 4,8 km/h (1 Bft)
20.08.2020 08:30 17,2 C 87 % 1012,4 hPa 0,0 mm SO 145 4,8 km/h (1 Bft)
20.08.2020 08:35 17,4 C 87 % 1012,4 hPa 0,0 mm SO 145 6,4 km/h (2 Bft)
20.08.2020 08:40 17,4 C 86 % 1012,4 hPa 0,0 mm SO 145 4,8 km/h (1 Bft)
20.08.2020 08:45 17,8 C 87 % 1012,5 hPa 0,0 mm SO 145 4,8 km/h (1 Bft)
20.08.2020 08:50 17,9 C 86 % 1012,5 hPa 0,0 mm SO 145 4,8 km/h (1 Bft)
20.08.2020 08:55 17,9 C 85 % 1012,7 hPa 0,0 mm SO 145 3,2 km/h (1 Bft)
20.08.2020 09:00 18,0 C 85 % 1012,6 hPa 0,0 mm SO 145 3,2 km/h (1 Bft)
20.08.2020 09:05 18,3 C 85 % 1012,7 hPa 0,0 mm SO 145 4,8 km/h (1 Bft)
20.08.2020 09:10 18,5 C 84 % 1012,7 hPa 0,0 mm SO 145 3,2 km/h (1 Bft)
20.08.2020 09:15 19,1 C 83 % 1012,8 hPa 0,0 mm SO 145 6,4 km/h (2 Bft)
20.08.2020 09:20 19,1 C 83 % 1012,8 hPa 0,0 mm SO 145 4,8 km/h (1 Bft)
20.08.2020 09:25 19,0 C 83 % 1012,8 hPa 0,0 mm SO 145 4,8 km/h (1 Bft)
20.08.2020 09:30 19,3 C 82 % 1012,8 hPa 0,0 mm O-SO 105 8,0 km/h (2 Bft)
20.08.2020 09:35 19,6 C 82 % 1012,9 hPa 0,0 mm O 98 8,0 km/h (2 Bft)
20.08.2020 09:40 19,8 C 83 % 1012,9 hPa 0,0 mm SO 139 8,0 km/h (2 Bft)
20.08.2020 09:45 20,2 C 81 % 1012,9 hPa 0,0 mm SO 146 6,4 km/h (2 Bft)
20.08.2020 09:50 20,6 C 80 % 1013,0 hPa 0,0 mm SO 142 8,0 km/h (2 Bft)
20.08.2020 09:55 20,3 C 78 % 1013,0 hPa 0,0 mm SO 125 6,4 km/h (2 Bft)
20.08.2020 10:00 20,6 C 80 % 1013,1 hPa 0,0 mm O-SO 118 6,4 km/h (2 Bft)
20.08.2020 10:05 20,8 C 77 % 1013,1 hPa 0,0 mm S-SO 153 8,0 km/h (2 Bft)
20.08.2020 10:10 21,2 C 77 % 1013,0 hPa 0,0 mm O-SO 119 8,0 km/h (2 Bft)
20.08.2020 10:15 21,5 C 78 % 1013,0 hPa 0,0 mm O-SO 119 6,4 km/h (2 Bft)
20.08.2020 10:20 21,6 C 76 % 1013,1 hPa 0,0 mm O-SO 123 8,0 km/h (2 Bft)
20.08.2020 10:25 21,5 C 76 % 1013,1 hPa 0,0 mm O-SO 107 6,4 km/h (2 Bft)
20.08.2020 10:30 21,6 C 77 % 1013,1 hPa 0,0 mm O-SO 107 9,7 km/h (2 Bft)
20.08.2020 10:35 21,7 C 76 % 1013,2 hPa 0,0 mm O 97 9,7 km/h (2 Bft)
20.08.2020 10:40 21,8 C 74 % 1013,1 hPa 0,0 mm SO 130 9,7 km/h (2 Bft)
20.08.2020 10:45 22,0 C 75 % 1013,1 hPa 0,0 mm O-SO 107 8,0 km/h (2 Bft)
20.08.2020 10:50 22,2 C 76 % 1013,1 hPa 0,0 mm O 82 11,3 km/h (2 Bft)
20.08.2020 10:55 22,4 C 75 % 1013,2 hPa 0,0 mm O 81 6,4 km/h (2 Bft)
20.08.2020 11:00 22,6 C 74 % 1013,2 hPa 0,0 mm SO 128 8,0 km/h (2 Bft)
20.08.2020 11:05 22,7 C 75 % 1013,2 hPa 0,0 mm O-NO 78 8,0 km/h (2 Bft)
20.08.2020 11:10 22,8 C 74 % 1013,3 hPa 0,0 mm O 94 11,3 km/h (2 Bft)
20.08.2020 11:15 22,9 C 73 % 1013,4 hPa 0,0 mm O-SO 115 8,0 km/h (2 Bft)
20.08.2020 11:20 22,9 C 70 % 1013,4 hPa 0,0 mm O-NO 76 11,3 km/h (2 Bft)
20.08.2020 11:25 23,1 C 70 % 1013,3 hPa 0,0 mm SO 125 8,0 km/h (2 Bft)
20.08.2020 11:30 23,3 C 73 % 1013,4 hPa 0,0 mm O-SO 120 11,3 km/h (2 Bft)
20.08.2020 11:35 23,4 C 72 % 1013,4 hPa 0,0 mm SO 134 8,0 km/h (2 Bft)
20.08.2020 11:40 23,5 C 69 % 1013,3 hPa 0,0 mm O 84 8,0 km/h (2 Bft)
20.08.2020 11:45 23,7 C 70 % 1013,4 hPa 0,0 mm O-SO 111 9,7 km/h (2 Bft)
20.08.2020 11:50 23,8 C 63 % 1013,3 hPa 0,0 mm SO 126 9,7 km/h (2 Bft)
20.08.2020 11:55 24,2 C 63 % 1013,3 hPa 0,0 mm O-NO 76 8,0 km/h (2 Bft)
20.08.2020 12:00 24,3 C 58 % 1013,3 hPa 0,0 mm O-NO 66 6,4 km/h (2 Bft)
20.08.2020 12:05 24,6 C 64 % 1013,4 hPa 0,0 mm O-NO 77 8,0 km/h (2 Bft)
20.08.2020 12:10 24,7 C 66 % 1013,3 hPa 0,0 mm O-NO 71 8,0 km/h (2 Bft)
20.08.2020 12:15 24,9 C 66 % 1013,3 hPa 0,0 mm SO 128 8,0 km/h (2 Bft)
20.08.2020 12:20 25,1 C 62 % 1013,3 hPa 0,0 mm O-SO 113 8,0 km/h (2 Bft)
20.08.2020 12:25 24,9 C 60 % 1013,3 hPa 0,0 mm SO 137 11,3 km/h (2 Bft)
20.08.2020 12:30 24,6 C 59 % 1013,3 hPa 0,0 mm SO 125 4,8 km/h (1 Bft)
20.08.2020 12:35 25,0 C 61 % 1013,3 hPa 0,0 mm SO 139 6,4 km/h (2 Bft)
20.08.2020 12:40 25,4 C 64 % 1013,3 hPa 0,0 mm SO 142 6,4 km/h (2 Bft)
20.08.2020 12:45 25,2 C 62 % 1013,2 hPa 0,0 mm SO 130 6,4 km/h (2 Bft)
20.08.2020 12:50 25,6 C 59 % 1013,1 hPa 0,0 mm S-SO 153 8,0 km/h (2 Bft)
20.08.2020 12:55 25,5 C 57 % 1013,1 hPa 0,0 mm S-SO 153 4,8 km/h (1 Bft)
20.08.2020 13:00 26,2 C 57 % 1013,1 hPa 0,0 mm S-SO 155 3,2 km/h (1 Bft)
20.08.2020 13:05 26,3 C 57 % 1013,0 hPa 0,0 mm S-SO 155 4,8 km/h (1 Bft)
20.08.2020 13:10 26,1 C 55 % 1013,0 hPa 0,0 mm S-SO 155 6,4 km/h (2 Bft)
20.08.2020 13:15 26,0 C 59 % 1013,1 hPa 0,0 mm SO 130 6,4 km/h (2 Bft)
20.08.2020 13:20 26,0 C 58 % 1013,0 hPa 0,0 mm SO 130 4,8 km/h (1 Bft)
20.08.2020 13:25 26,3 C 65 % 1012,9 hPa 0,0 mm W-SW 253 4,8 km/h (1 Bft)
20.08.2020 13:30 27,0 C 61 % 1012,9 hPa 0,0 mm W 277 6,4 km/h (2 Bft)
20.08.2020 13:35 26,5 C 54 % 1012,9 hPa 0,0 mm S-SO 155 6,4 km/h (2 Bft)
20.08.2020 13:40 26,7 C 58 % 1012,9 hPa 0,0 mm S 181 4,8 km/h (1 Bft)
20.08.2020 13:45 26,5 C 54 % 1012,9 hPa 0,0 mm S 178 6,4 km/h (2 Bft)
20.08.2020 13:50 26,7 C 57 % 1012,9 hPa 0,0 mm O 96 4,8 km/h (1 Bft)
20.08.2020 13:55 26,7 C 51 % 1012,9 hPa 0,0 mm N-NO 15 9,7 km/h (2 Bft)
20.08.2020 14:00 27,1 C 53 % 1012,8 hPa 0,0 mm W 281 8,0 km/h (2 Bft)
20.08.2020 14:05 27,2 C 51 % 1012,8 hPa 0,0 mm W 273 4,8 km/h (1 Bft)
20.08.2020 14:10 27,2 C 51 % 1012,7 hPa 0,0 mm W-SW 255 3,2 km/h (1 Bft)
20.08.2020 14:15 27,4 C 56 % 1012,7 hPa 0,0 mm W 264 4,8 km/h (1 Bft)
20.08.2020 14:20 27,4 C 50 % 1012,6 hPa 0,0 mm N 5 6,4 km/h (2 Bft)
20.08.2020 14:25 27,1 C 52 % 1012,5 hPa 0,0 mm N-NO 22 6,4 km/h (2 Bft)
20.08.2020 14:30 27,2 C 55 % 1012,5 hPa 0,0 mm N 360 8,0 km/h (2 Bft)
20.08.2020 14:35 27,4 C 51 % 1012,4 hPa 0,0 mm W 273 9,7 km/h (2 Bft)
20.08.2020 14:40 27,7 C 54 % 1012,4 hPa 0,0 mm W-NW 293 6,4 km/h (2 Bft)
20.08.2020 14:45 27,9 C 52 % 1012,4 hPa 0,0 mm W 262 9,7 km/h (2 Bft)
20.08.2020 14:50 27,9 C 52 % 1012,4 hPa 0,0 mm W-NW 284 9,7 km/h (2 Bft)
20.08.2020 14:55 27,7 C 55 % 1012,3 hPa 0,0 mm W-NW 284 3,2 km/h (1 Bft)
20.08.2020 15:00 27,4 C 54 % 1012,2 hPa 0,0 mm O-SO 113 4,8 km/h (1 Bft)
20.08.2020 15:05 27,2 C 58 % 1012,1 hPa 0,0 mm N 355 4,8 km/h (1 Bft)
20.08.2020 15:10 27,1 C 57 % 1012,1 hPa 0,0 mm N 355 6,4 km/h (2 Bft)
20.08.2020 15:15 27,1 C 49 % 1012,1 hPa 0,0 mm N-NO 19 8,0 km/h (2 Bft)
20.08.2020 15:20 27,2 C 53 % 1012,1 hPa 0,0 mm S-SO 155 4,8 km/h (1 Bft)
20.08.2020 15:25 27,1 C 50 % 1012,1 hPa 0,0 mm S-SO 155 3,2 km/h (1 Bft)
20.08.2020 15:30 27,1 C 52 % 1012,0 hPa 0,0 mm S-SO 155 3,2 km/h (1 Bft)
20.08.2020 15:35 27,1 C 51 % 1012,1 hPa 0,0 mm S-SO 155 1,6 km/h (1 Bft)
20.08.2020 15:40 27,2 C 57 % 1012,0 hPa 0,0 mm O-NO 76 4,8 km/h (1 Bft)
20.08.2020 15:45 27,2 C 57 % 1012,0 hPa 0,0 mm NO 49 6,4 km/h (2 Bft)
20.08.2020 15:50 27,2 C 56 % 1012,1 hPa 0,0 mm O 90 4,8 km/h (1 Bft)
20.08.2020 15:55 27,2 C 59 % 1012,0 hPa 0,0 mm O-NO 74 9,7 km/h (2 Bft)
20.08.2020 16:00 27,1 C 59 % 1012,0 hPa 0,0 mm O-NO 71 8,0 km/h (2 Bft)
20.08.2020 16:05 27,1 C 60 % 1012,0 hPa 0,0 mm O 85 8,0 km/h (2 Bft)
20.08.2020 16:10 27,1 C 60 % 1012,0 hPa 0,0 mm O 84 6,4 km/h (2 Bft)
20.08.2020 16:15 27,0 C 55 % 1011,9 hPa 0,0 mm O 93 9,7 km/h (2 Bft)
20.08.2020 16:20 27,0 C 61 % 1011,9 hPa 0,0 mm O-SO 121 8,0 km/h (2 Bft)
20.08.2020 16:25 26,9 C 58 % 1011,9 hPa 0,0 mm O 99 12,9 km/h (3 Bft)
20.08.2020 16:30 26,8 C 57 % 1011,9 hPa 0,0 mm SO 138 9,7 km/h (2 Bft)
20.08.2020 16:35 26,8 C 58 % 1011,8 hPa 0,0 mm O 100 11,3 km/h (2 Bft)
20.08.2020 16:40 26,8 C 61 % 1011,8 hPa 0,0 mm SO 124 11,3 km/h (2 Bft)
20.08.2020 16:45 26,8 C 60 % 1011,8 hPa 0,0 mm O-SO 121 9,7 km/h (2 Bft)
20.08.2020 16:50 26,8 C 63 % 1011,8 hPa 0,0 mm O-SO 104 9,7 km/h (2 Bft)
20.08.2020 16:55 26,7 C 59 % 1011,8 hPa 0,0 mm O 101 8,0 km/h (2 Bft)
20.08.2020 17:00 26,8 C 59 % 1011,8 hPa 0,0 mm SO 125 11,3 km/h (2 Bft)
20.08.2020 17:05 26,7 C 58 % 1011,8 hPa 0,0 mm O 83 9,7 km/h (2 Bft)
20.08.2020 17:10 26,7 C 58 % 1011,8 hPa 0,0 mm O-NO 68 9,7 km/h (2 Bft)
20.08.2020 17:15 26,7 C 56 % 1011,8 hPa 0,0 mm O-NO 76 8,0 km/h (2 Bft)
20.08.2020 17:20 26,7 C 59 % 1011,8 hPa 0,0 mm O-NO 67 6,4 km/h (2 Bft)
20.08.2020 17:25 26,7 C 56 % 1011,8 hPa 0,0 mm O-NO 67 8,0 km/h (2 Bft)
20.08.2020 17:30 26,9 C 59 % 1011,9 hPa 0,0 mm O-SO 117 11,3 km/h (2 Bft)
20.08.2020 17:35 26,7 C 61 % 1011,9 hPa 0,0 mm O-SO 116 8,0 km/h (2 Bft)
20.08.2020 17:40 26,4 C 61 % 1012,0 hPa 0,0 mm O-SO 119 8,0 km/h (2 Bft)
20.08.2020 17:45 26,4 C 61 % 1012,0 hPa 0,0 mm O-SO 118 8,0 km/h (2 Bft)
20.08.2020 17:50 26,3 C 61 % 1012,0 hPa 0,0 mm SO 145 9,7 km/h (2 Bft)
20.08.2020 17:55 26,2 C 61 % 1012,0 hPa 0,0 mm O-SO 123 8,0 km/h (2 Bft)
20.08.2020 18:00 26,2 C 61 % 1011,9 hPa 0,0 mm O-SO 112 8,0 km/h (2 Bft)
20.08.2020 18:05 26,1 C 59 % 1011,9 hPa 0,0 mm O-SO 122 6,4 km/h (2 Bft)
20.08.2020 18:10 26,2 C 61 % 1011,9 hPa 0,0 mm O-SO 116 8,0 km/h (2 Bft)
20.08.2020 18:15 26,1 C 61 % 1011,9 hPa 0,0 mm S-SO 148 4,8 km/h (1 Bft)
20.08.2020 18:20 25,9 C 60 % 1012,0 hPa 0,0 mm O-SO 121 6,4 km/h (2 Bft)
20.08.2020 18:25 25,9 C 62 % 1011,9 hPa 0,0 mm O-SO 121 4,8 km/h (1 Bft)
20.08.2020 18:30 25,9 C 63 % 1011,9 hPa 0,0 mm O-SO 121 4,8 km/h (1 Bft)
20.08.2020 18:35 25,8 C 62 % 1012,0 hPa 0,0 mm O-SO 121 4,8 km/h (1 Bft)
20.08.2020 18:40 25,7 C 64 % 1012,0 hPa 0,0 mm O-SO 121 4,8 km/h (1 Bft)
20.08.2020 18:45 25,6 C 65 % 1012,0 hPa 0,0 mm O-SO 121 3,2 km/h (1 Bft)
20.08.2020 18:50 25,4 C 66 % 1012,1 hPa 0,0 mm O-SO 121 3,2 km/h (1 Bft)
20.08.2020 18:55 25,3 C 67 % 1012,0 hPa 0,0 mm O-SO 121 3,2 km/h (1 Bft)
20.08.2020 19:00 25,1 C 68 % 1012,0 hPa 0,0 mm O-SO 121 3,2 km/h (1 Bft)
20.08.2020 19:05 24,9 C 67 % 1012,0 hPa 0,0 mm O-SO 121 3,2 km/h (1 Bft)
20.08.2020 19:10 24,8 C 69 % 1012,1 hPa 0,0 mm O-SO 121 3,2 km/h (1 Bft)
20.08.2020 19:15 24,7 C 70 % 1012,0 hPa 0,0 mm O-SO 121 4,8 km/h (1 Bft)
20.08.2020 19:20 24,4 C 69 % 1012,0 hPa 0,0 mm O-SO 121 4,8 km/h (1 Bft)
20.08.2020 19:25 24,3 C 70 % 1012,0 hPa 0,0 mm O-SO 121 1,6 km/h (1 Bft)
20.08.2020 19:30 24,2 C 72 % 1012,0 hPa 0,0 mm O-SO 121 1,6 km/h (1 Bft)
20.08.2020 19:35 24,2 C 72 % 1012,0 hPa 0,0 mm O-SO 121 0,0 km/h (0 Bft)
20.08.2020 19:40 24,2 C 73 % 1012,0 hPa 0,0 mm O-SO 121 1,6 km/h (1 Bft)
20.08.2020 19:45 24,2 C 72 % 1012,1 hPa 0,0 mm O-SO 121 1,6 km/h (1 Bft)
20.08.2020 19:50 24,1 C 72 % 1012,1 hPa 0,0 mm O-SO 121 0,0 km/h (0 Bft)
20.08.2020 19:55 23,9 C 72 % 1012,2 hPa 0,0 mm O-SO 121 0,0 km/h (0 Bft)
20.08.2020 20:00 23,8 C 72 % 1012,2 hPa 0,0 mm O-SO 121 0,0 km/h (0 Bft)
20.08.2020 20:05 23,7 C 72 % 1012,2 hPa 0,0 mm O-SO 121 0,0 km/h (0 Bft)
20.08.2020 20:10 23,5 C 72 % 1012,3 hPa 0,0 mm O-SO 121 0,0 km/h (0 Bft)
20.08.2020 20:15 23,3 C 72 % 1012,3 hPa 0,0 mm O-SO 121 0,0 km/h (0 Bft)
20.08.2020 20:20 23,2 C 72 % 1012,4 hPa 0,0 mm O-SO 121 0,0 km/h (0 Bft)
20.08.2020 20:25 23,0 C 73 % 1012,5 hPa 0,0 mm O-SO 121 0,0 km/h (0 Bft)
20.08.2020 20:30 22,8 C 73 % 1012,7 hPa 0,0 mm O-SO 121 0,0 km/h (0 Bft)
20.08.2020 20:35 22,7 C 73 % 1012,8 hPa 0,0 mm O-SO 121 0,0 km/h (0 Bft)
20.08.2020 20:40 22,4 C 74 % 1012,8 hPa 0,0 mm O-SO 121 0,0 km/h (0 Bft)
20.08.2020 20:45 22,3 C 74 % 1012,8 hPa 0,0 mm O-SO 121 0,0 km/h (0 Bft)
20.08.2020 20:50 22,1 C 75 % 1012,9 hPa 0,0 mm O-SO 121 0,0 km/h (0 Bft)
20.08.2020 20:55 21,9 C 74 % 1013,0 hPa 0,0 mm O-SO 121 0,0 km/h (0 Bft)
20.08.2020 21:00 21,7 C 75 % 1013,0 hPa 0,0 mm O-SO 121 0,0 km/h (0 Bft)
20.08.2020 21:05 21,6 C 75 % 1013,1 hPa 0,0 mm O-SO 121 0,0 km/h (0 Bft)
20.08.2020 21:10 21,3 C 75 % 1013,1 hPa 0,0 mm O-SO 121 1,6 km/h (1 Bft)
20.08.2020 21:15 21,2 C 76 % 1013,0 hPa 0,0 mm O-SO 121 0,0 km/h (0 Bft)
20.08.2020 21:20 21,1 C 77 % 1013,1 hPa 0,0 mm O-SO 121 1,6 km/h (1 Bft)
20.08.2020 21:25 20,9 C 77 % 1013,0 hPa 0,0 mm O-SO 121 0,0 km/h (0 Bft)
20.08.2020 21:30 20,7 C 77 % 1013,0 hPa 0,0 mm O-SO 121 3,2 km/h (1 Bft)
20.08.2020 21:35 20,6 C 78 % 1013,0 hPa 0,0 mm O-SO 121 0,0 km/h (0 Bft)
20.08.2020 21:40 20,4 C 78 % 1013,0 hPa 0,0 mm O-SO 121 3,2 km/h (1 Bft)
20.08.2020 21:45 20,3 C 79 % 1013,0 hPa 0,0 mm O-SO 118 3,2 km/h (1 Bft)
20.08.2020 21:50 20,1 C 79 % 1013,0 hPa 0,0 mm O-SO 118 0,0 km/h (0 Bft)
20.08.2020 21:55 19,9 C 79 % 1013,1 hPa 0,0 mm O-SO 118 0,0 km/h (0 Bft)
20.08.2020 22:00 19,8 C 79 % 1013,0 hPa 0,0 mm O-SO 118 0,0 km/h (0 Bft)
20.08.2020 22:05 19,7 C 80 % 1013,0 hPa 0,0 mm O-SO 118 0,0 km/h (0 Bft)
20.08.2020 22:10 19,5 C 80 % 1013,0 hPa 0,0 mm O-SO 118 0,0 km/h (0 Bft)
20.08.2020 22:15 19,4 C 80 % 1013,1 hPa 0,0 mm O-SO 118 0,0 km/h (0 Bft)
20.08.2020 22:20 19,3 C 80 % 1013,1 hPa 0,0 mm O-SO 118 1,6 km/h (1 Bft)
20.08.2020 22:25 19,2 C 81 % 1013,1 hPa 0,0 mm O-SO 118 0,0 km/h (0 Bft)
20.08.2020 22:30 19,1 C 81 % 1013,0 hPa 0,0 mm O-SO 118 1,6 km/h (1 Bft)
20.08.2020 22:35 19,0 C 81 % 1013,0 hPa 0,0 mm O-SO 118 1,6 km/h (1 Bft)
20.08.2020 22:40 18,9 C 81 % 1013,1 hPa 0,0 mm O-SO 118 0,0 km/h (0 Bft)
20.08.2020 22:45 18,8 C 82 % 1013,1 hPa 0,0 mm O-SO 118 0,0 km/h (0 Bft)
20.08.2020 22:50 18,7 C 82 % 1013,1 hPa 0,0 mm O-SO 118 0,0 km/h (0 Bft)
20.08.2020 22:55 18,7 C 82 % 1013,2 hPa 0,0 mm O-SO 118 0,0 km/h (0 Bft)
20.08.2020 23:00 18,6 C 82 % 1013,2 hPa 0,0 mm O-SO 118 0,0 km/h (0 Bft)
20.08.2020 23:05 18,5 C 83 % 1013,3 hPa 0,0 mm O-SO 118 0,0 km/h (0 Bft)
20.08.2020 23:10 18,4 C 83 % 1013,4 hPa 0,0 mm O-SO 118 0,0 km/h (0 Bft)
20.08.2020 23:15 18,4 C 83 % 1013,5 hPa 0,0 mm O-SO 118 0,0 km/h (0 Bft)
20.08.2020 23:20 18,3 C 83 % 1013,5 hPa 0,0 mm O-SO 118 3,2 km/h (1 Bft)
20.08.2020 23:25 18,2 C 83 % 1013,5 hPa 0,0 mm O-SO 118 0,0 km/h (0 Bft)
20.08.2020 23:30 18,1 C 83 % 1013,5 hPa 0,0 mm O-SO 118 0,0 km/h (0 Bft)
20.08.2020 23:35 18,1 C 83 % 1013,5 hPa 0,0 mm O-SO 118 0,0 km/h (0 Bft)
20.08.2020 23:40 17,9 C 83 % 1013,6 hPa 0,0 mm O-SO 118 0,0 km/h (0 Bft)
20.08.2020 23:45 17,9 C 84 % 1013,5 hPa 0,0 mm O-SO 118 0,0 km/h (0 Bft)
20.08.2020 23:50 17,8 C 84 % 1013,5 hPa 0,0 mm O-SO 118 0,0 km/h (0 Bft)
20.08.2020 23:55 17,7 C 84 % 1013,6 hPa 0,0 mm O-SO 118 0,0 km/h (0 Bft)
_ Min-Zeit 06:35 15:15 03:10 - - - 00:00
Minimum _ 11,1 C 49 % 1011,1 hPa - - - 0,0 km/h (0 Bft)
_ Max-Zeit 14:50 07:00 23:40 00:00 - - 16:25
Maximum _ 28,0 C 91 % 1013,6 hPa 0,0 mm - - 12,9 km/h
O-SO (3 Bft)
Durchschnitt _ 19,7 C 75 % 1012,3 hPa #0,0 mm SO - 3,5 km/h (1 Bft)